TimeMST,TemperatureF,Dew PointF,Humidity,Sea Level PressureIn,VisibilityMPH,Wind Direction,Wind SpeedMPH,Gust SpeedMPH,PrecipitationIn,Events,Conditions,WindDirDegrees,DateUTC
12:13 AM,1.4,-2.2,85,29.83,3.0,NNW,29.9,36.8,0.00,Snow,Light Snow,340,2013-01-12 07:13:00
12:53 AM,1.9,-4.0,76,30.10,9.0,NNW,29.9,40.3,0.00,,Overcast,340,2013-01-12 07:53:00
1:49 AM,3.2,-2.2,78,29.86,2.5,NNW,26.5,42.6,0.00,Snow,Light Snow,340,2013-01-12 08:49:00
1:53 AM,3.0,-2.9,76,30.11,2.5,North,29.9,39.1,0.00,Snow,Light Snow,350,2013-01-12 08:53:00
2:19 AM,1.4,-2.2,85,29.88,4.0,North,27.6,36.8,0.00,Snow,Light Snow,350,2013-01-12 09:19:00
2:53 AM,1.9,-2.9,80,30.15,6.0,North,23.0,34.5,0.00,Snow,Light Snow,350,2013-01-12 09:53:00
3:53 AM,3.0,-2.0,80,30.14,10.0,North,28.8,34.5,0.00,,Overcast,350,2013-01-12 10:53:00
4:53 AM,3.9,-0.9,80,30.15,8.0,North,23.0,34.5,0.00,Snow,Light Snow,350,2013-01-12 11:53:00
5:53 AM,3.0,-2.0,80,30.18,9.0,NNW,15.0,24.2,0.00,Snow,Light Snow,340,2013-01-12 12:53:00
6:19 AM,3.2,-0.4,85,29.92,10.0,WNW,8.1,-,0.00,,Overcast,290,2013-01-12 13:19:00
6:28 AM,3.2,-0.4,85,29.92,10.0,WNW,11.5,-,0.00,,Overcast,300,2013-01-12 13:28:00
6:42 AM,3.2,-0.4,85,29.93,4.0,NNW,9.2,-,0.00,Snow,Light Snow,330,2013-01-12 13:42:00
6:53 AM,3.0,-0.9,84,30.20,1.8,NNW,8.1,-,0.00,Snow,Light Snow,340,2013-01-12 13:53:00
7:08 AM,3.2,-0.4,85,29.94,3.0,NNW,8.1,-,0.00,Snow,Light Snow,340,2013-01-12 14:08:00
7:48 AM,3.2,-0.4,85,29.96,5.0,NNW,4.6,-,0.00,,Overcast,330,2013-01-12 14:48:00
7:53 AM,3.0,-0.9,84,30.23,3.0,NNW,6.9,-,0.00,Snow,Light Snow,330,2013-01-12 14:53:00
8:00 AM,3.2,-0.4,85,29.97,1.8,NW,8.1,-,0.00,Snow,Light Snow,320,2013-01-12 15:00:00
8:08 AM,3.2,-0.4,85,29.97,1.2,NW,8.1,-,0.00,Snow,Light Snow,320,2013-01-12 15:08:00
8:15 AM,3.2,-0.4,85,29.97,1.8,NW,9.2,-,0.00,Snow,Light Snow,320,2013-01-12 15:15:00
8:25 AM,3.2,-0.4,85,29.98,2.5,NNW,10.4,-,0.00,Snow,Light Snow,330,2013-01-12 15:25:00
8:33 AM,3.2,-0.4,85,29.98,5.0,NW,9.2,-,0.00,Snow,Light Snow,310,2013-01-12 15:33:00
8:53 AM,3.9,-0.9,80,30.23,3.0,NW,9.2,-,0.00,,Haze,310,2013-01-12 15:53:00
9:53 AM,5.0,-0.0,80,30.25,5.0,SSE,3.5,-,N/A,,Haze,150,2013-01-12 16:53:00
10:19 AM,6.8,-0.4,72,30.00,2.5,Calm,Calm,-,0.00,Snow,Light Snow,0,2013-01-12 17:19:00
10:26 AM,6.8,-0.4,72,30.00,5.0,SSE,5.8,-,0.00,Snow,Light Snow,160,2013-01-12 17:26:00
10:53 AM,6.1,1.0,80,30.26,5.0,South,3.5,-,0.00,,Haze,170,2013-01-12 17:53:00
11:53 AM,7.0,1.0,77,30.22,7.0,South,3.5,-,0.00,,Overcast,170,2013-01-12 18:53:00
12:27 PM,6.8,1.4,79,29.96,2.0,South,3.5,-,0.00,Snow,Light Snow,180,2013-01-12 19:27:00
12:53 PM,7.0,1.0,77,30.21,2.0,Calm,Calm,-,0.00,Snow,Light Snow,0,2013-01-12 19:53:00
1:04 PM,6.8,1.4,79,29.96,1.8,SE,3.5,-,0.00,Snow,Light Snow,140,2013-01-12 20:04:00
1:12 PM,8.6,1.4,73,29.96,2.5,SE,4.6,-,0.00,Snow,Light Snow,140,2013-01-12 20:12:00
1:31 PM,8.6,1.4,73,29.96,3.0,South,4.6,-,0.00,Snow,Light Snow,180,2013-01-12 20:31:00
1:53 PM,8.1,1.9,76,30.21,3.0,South,5.8,-,0.00,,Haze,190,2013-01-12 20:53:00
2:53 PM,9.0,1.0,70,30.21,10.0,SSE,5.8,-,N/A,,Mostly Cloudy,160,2013-01-12 21:53:00
3:53 PM,8.1,-0.0,70,30.22,10.0,ESE,3.5,-,N/A,,Scattered Clouds,110,2013-01-12 22:53:00
4:53 PM,3.9,-0.9,80,30.24,10.0,Calm,Calm,-,N/A,,Scattered Clouds,0,2013-01-12 23:53:00
6:53 PM,7.0,-0.9,70,30.22,10.0,SSW,3.5,-,N/A,,Overcast,210,2013-01-13 01:53:00
7:53 PM,7.0,-0.0,73,30.23,5.0,Calm,Calm,-,0.00,Snow,Light Snow,0,2013-01-13 02:53:00
8:53 PM,8.1,3.0,80,30.22,4.0,Calm,Calm,-,0.00,,Haze,0,2013-01-13 03:53:00
9:37 PM,6.8,1.4,79,29.97,2.5,NW,3.5,-,0.00,Snow,Light Snow,310,2013-01-13 04:37:00
10:37 PM,5.0,1.4,85,29.98,8.0,NW,3.5,-,0.00,,Overcast,310,2013-01-13 05:37:00
10:53 PM,3.9,-0.0,84,30.24,8.0,NW,3.5,-,0.00,,Overcast,320,2013-01-13 05:53:00
11:53 PM,5.0,1.0,84,30.24,10.0,NW,5.8,-,N/A,,Overcast,320,2013-01-13 06:53:00